Eau Claire, WI

11:26 AM CST on November 13, 2019 (GMT -0600)
Chippewa Valley Regional

Weather History for KEAU - October, 2019

Change the Weather History Date:

Tuesday, October 22, 2019

  Actual Average Record
Temperature  
Mean Temperature 44 °F 45 °F  
Max Temperature 46 °F 55 °F 82 °F (1899)
Min Temperature 42 °F 35 °F 15 °F (1930)
Degree Days  
Heating Degree Days 21 20  
Month to date heating degree days 322 354  
Since 1 July heating degree days 430 587  
Cooling Degree Days 0 0  
Month to date cooling degree days 0 4  
Year to date cooling degree days 463 579  
Moisture  
Dew Point 38 °F    
Average Humidity 81    
Maximum Humidity 93    
Minimum Humidity 65    
Precipitation  
Precipitation 0.11 in 0.06 in 1.75 in (1979)
Month to date precipitation 5.10 1.80  
Year to date precipitation 39.39 27.60  
Snow  
Snow 0.00 in 0.00 in 4.00 in (1917)
Month to date snowfall T 0.1  
Since 1 July snowfall T 0.1  
Since 1 September snowfall T 0.1  
Snow Depth 0.00 in    
Sea Level Pressure  
Sea Level Pressure 29.36 in    
Wind  
Wind Speed 9 mph ()    
Max Wind Speed 23 mph    
Max Gust Speed 36 mph    
Visibility 8.2 miles    
Events Rain    
T = Trace of Precipitation, MM = Missing Value Source: Averaged Metar Reports

Daily Weather History Graph

Daily Weather History Graph

Search for Another Location

Airport or City:

Astronomy

Oct. 22, 2019 Rise Set
Actual Time 7:30 AM CDT 6:09 PM CDT
Civil Twilight 7:00 AM CDT 6:39 PM CDT
Nautical Twilight 6:26 AM CDT 7:13 PM CDT
Astronomical Twilight 5:52 AM CDT 7:47 PM CDT
Moon 12:18 AM CDT (10/22) 3:39 PM CDT (10/22)
Length of Visible Light 11h 39m
Length of Day
10h 39m
Last Quarter, 37% of the Moon is Illuminated
Oct 22
Last Quarter
Oct 27
New
Nov 4
First Quarter
Nov 12
Full
Nov 19
Last Quarter

Hourly Weather History & Observations

Time (CDT) Temp. Windchill Dew Point Humidity Pressure Visibility Wind Dir Wind Speed Gust Speed Precip Events Conditions
12:56 AM 46.0 °F 41.9 °F 42.1 °F 86% 29.18 in 6.0 mi SSW 8.1 mph - 0.04 in Rain Light Rain
1:16 AM 45.0 °F 39.7 °F 39.9 °F 82% 29.18 in 8.0 mi SSW 10.4 mph - 0.02 in Rain Light Rain
1:56 AM 44.1 °F 41.5 °F 39.9 °F 85% 29.18 in 10.0 mi South 4.6 mph - 0.02 in Rain Light Rain
2:41 AM 44.1 °F - 39.9 °F 85% 29.18 in 10.0 mi Calm Calm - 0.01 in   Overcast
2:56 AM 44.1 °F - 39.9 °F 85% 29.18 in 10.0 mi Calm Calm - 0.01 in   Overcast
3:29 AM 44.1 °F - 41.0 °F 89% 29.18 in 10.0 mi Calm Calm - 0.00 in   Overcast
3:37 AM 44.1 °F - 41.0 °F 89% 29.18 in 10.0 mi Calm Calm - 0.00 in   Overcast
3:48 AM 44.1 °F 42.5 °F 39.9 °F 85% 29.18 in 10.0 mi WSW 3.5 mph - 0.00 in   Overcast
3:56 AM 44.1 °F - 39.9 °F 85% 29.18 in 10.0 mi Calm Calm - 0.00 in   Overcast
4:09 AM 44.1 °F 42.5 °F 39.9 °F 85% 29.18 in 10.0 mi SW 3.5 mph - N/A   Overcast
4:51 AM 44.6 °F 42.2 °F 41.0 °F 87% 29.19 in 2.5 mi SW 4.6 mph - N/A   Overcast
4:56 AM 44.1 °F 40.8 °F 41.0 °F 89% 29.20 in 2.5 mi WSW 5.8 mph - N/A   Overcast
5:11 AM 44.1 °F 40.8 °F 41.0 °F 89% 29.20 in 2.0 mi SW 5.8 mph - 0.01 in Rain Light Rain
5:22 AM 44.1 °F 40.8 °F 41.0 °F 89% 29.20 in 6.0 mi WSW 5.8 mph - 0.01 in   Overcast
5:53 AM 44.6 °F 39.7 °F 42.8 °F 93% 29.21 in 2.5 mi West 9.2 mph - 0.02 in Rain Light Rain
5:56 AM 45.0 °F 39.3 °F 42.1 °F 90% 29.22 in 3.0 mi West 11.5 mph - 0.02 in Rain Light Rain
6:12 AM 45.0 °F 38.5 °F 41.0 °F 86% 29.22 in 5.0 mi WNW 13.8 mph 24.2 mph 0.00 in   Overcast
6:30 AM 44.1 °F 36.8 °F 39.9 °F 85% 29.23 in 9.0 mi West 16.1 mph 26.5 mph 0.00 in   Overcast
7:33 AM 42.1 °F 34.9 °F 37.0 °F 82% 29.26 in 10.0 mi West 13.8 mph 25.3 mph 0.01 in Rain Light Rain
7:46 AM 42.1 °F 35.2 °F 37.9 °F 85% 29.27 in 9.0 mi West 12.7 mph - 0.01 in Rain Light Rain
7:56 AM 42.1 °F 36.1 °F 39.0 °F 89% 29.29 in 2.5 mi West 10.4 mph - 0.01 in   Overcast
8:12 AM 43.0 °F 37.7 °F 39.0 °F 86% 29.28 in 2.0 mi West 9.2 mph 19.6 mph 0.00 in Rain Light Rain
8:43 AM 44.1 °F 36.2 °F 39.0 °F 82% 29.29 in 8.0 mi West 18.4 mph 32.2 mph 0.00 in   Overcast
8:56 AM 44.1 °F 37.1 °F 37.9 °F 79% 29.31 in 10.0 mi West 15.0 mph 27.6 mph 0.00 in Rain Light Rain
9:56 AM 44.1 °F 35.7 °F 37.9 °F 79% 29.33 in 10.0 mi West 20.7 mph 33.4 mph 0.00 in   Overcast
10:56 AM 44.1 °F 37.1 °F 37.9 °F 79% 29.37 in 10.0 mi West 15.0 mph 31.1 mph 0.00 in   Overcast
11:56 AM 44.1 °F 35.9 °F 37.0 °F 76% 29.39 in 10.0 mi West 19.6 mph 29.9 mph 0.00 in   Overcast
12:56 PM 43.0 °F 35.4 °F 37.0 °F 80% 29.42 in 10.0 mi West 16.1 mph 27.6 mph 0.00 in Rain Light Rain
1:56 PM 43.0 °F 35.4 °F 37.0 °F 80% 29.44 in 5.0 mi West 16.1 mph 26.5 mph 0.01 in Rain Light Rain
2:21 PM 43.0 °F 35.4 °F 37.9 °F 82% 29.44 in 5.0 mi West 16.1 mph 24.2 mph 0.00 in Rain Light Rain
2:33 PM 43.0 °F 36.0 °F 37.0 °F 80% 29.44 in 10.0 mi West 13.8 mph 24.2 mph 0.00 in Rain Light Rain
2:56 PM 43.0 °F 35.4 °F 37.0 °F 80% 29.47 in 10.0 mi West 16.1 mph 25.3 mph 0.00 in Rain Light Rain
3:56 PM 43.0 °F 34.5 °F 37.0 °F 80% 29.51 in 10.0 mi West 19.6 mph 34.5 mph 0.00 in Rain Light Rain
4:13 PM 43.0 °F 35.4 °F 35.1 °F 74% 29.50 in 10.0 mi West 16.1 mph 35.7 mph 0.00 in   Overcast
4:26 PM 43.0 °F 34.2 °F 35.1 °F 74% 29.50 in 10.0 mi West 20.7 mph 33.4 mph 0.00 in   Overcast
4:56 PM 43.0 °F 35.1 °F 36.0 °F 76% 29.53 in 10.0 mi West 17.3 mph 27.6 mph 0.00 in   Overcast
5:56 PM 42.1 °F 33.1 °F 35.1 °F 76% 29.57 in 10.0 mi West 20.7 mph 34.5 mph 0.00 in   Overcast
6:56 PM 43.0 °F 35.4 °F 34.0 °F 71% 29.59 in 10.0 mi West 16.1 mph 29.9 mph N/A   Overcast
7:56 PM 43.0 °F 35.1 °F 34.0 °F 71% 29.61 in 10.0 mi West 17.3 mph 27.6 mph N/A   Overcast
8:22 PM 43.0 °F 35.1 °F 34.0 °F 71% 29.60 in 10.0 mi West 17.3 mph 27.6 mph N/A   Overcast
8:56 PM 43.0 °F 35.4 °F 34.0 °F 71% 29.63 in 10.0 mi West 16.1 mph 25.3 mph N/A   Overcast
9:56 PM 44.1 °F 37.1 °F 34.0 °F 68% 29.64 in 10.0 mi West 15.0 mph 21.9 mph N/A   Overcast
10:15 PM 44.1 °F 37.1 °F 34.0 °F 68% 29.63 in 10.0 mi West 15.0 mph - N/A   Overcast
10:56 PM 44.1 °F 36.8 °F 34.0 °F 68% 29.65 in 10.0 mi West 16.1 mph 27.6 mph N/A   Overcast
11:56 PM 44.1 °F 37.1 °F 34.0 °F 68% 29.66 in 10.0 mi West 15.0 mph 23.0 mph N/A   Overcast